| time (UTC) | temp C | wind direction | speed KPH | gust KPH | rain 1hr cm | rain 24hr cm | rain mn cm | humidity % | barometer mb |
| 20260504050517 | 13 | 189 | 0.0 | 0.0 | 0.00 | 0.00 | 0.00 | 979.8 | |
| 20260504045535 | 13 | 213 | 0.0 | 6.4 | 0.00 | 0.00 | 0.00 | 978.8 | |
| 20260504045015 | 13 | 206 | 0.0 | 0.0 | 0.00 | 0.00 | 0.00 | 978.8 | |
| 20260504044514 | 13 | 195 | 4.8 | 4.8 | 0.00 | 0.00 | 0.00 | 978.8 | |
| 20260504044013 | 13 | 222 | 6.4 | 6.4 | 0.00 | 0.00 | 0.00 | 978.8 | |
| 20260504043514 | 13 | 211 | 3.2 | 0.0 | 0.00 | 0.00 | 0.00 | 978.8 | |
| 20260504043014 | 13 | 191 | 3.2 | 0.0 | 0.00 | 0.00 | 0.00 | 979.8 | |
| 20260504042514 | 13 | 195 | 6.4 | 6.4 | 0.00 | 0.00 | 0.00 | 979.8 | |
| 20260504042039 | 14 | 234 | 0.0 | 0.0 | 0.00 | 0.00 | 0.00 | 979.8 | |
| 20260504041514 | 14 | 191 | 0.0 | 0.0 | 0.00 | 0.00 | 0.00 | 979.8 | |
| 20260504041014 | 14 | 209 | 0.0 | 0.0 | 0.00 | 0.00 | 0.00 | 979.8 | |
| 20260504040526 | 14 | 216 | 3.2 | 3.2 | 0.00 | 0.00 | 0.00 | 979.8 | |
| 20260504040014 | 14 | 218 | 0.0 | 0.0 | 0.00 | 0.00 | 0.00 | 979.8 | |
| 20260504035514 | 14 | 251 | 0.0 | 4.8 | 0.00 | 0.00 | 0.00 | 979.8 | |
| 20260504035017 | 14 | 195 | 0.0 | 0.0 | 0.00 | 0.00 | 0.00 | 979.8 | |
| 20260504034513 | 14 | 192 | 0.0 | 0.0 | 0.00 | 0.00 | 0.00 | 979.8 | |
| 20260504034014 | 14 | 189 | 0.0 | 0.0 | 0.00 | 0.00 | 0.00 | 979.8 | |
| 20260504033514 | 14 | 224 | 0.0 | 0.0 | 0.00 | 0.00 | 0.00 | 979.8 | |
| 20260504033019 | 14 | 183 | 4.8 | 8.0 | 0.00 | 0.00 | 0.00 | 979.8 | |
| 20260504032514 | 14 | 220 | 0.0 | 0.0 | 0.00 | 0.00 | 0.00 | 979.8 | |
| 20260504032014 | 14 | 192 | 0.0 | 0.0 | 0.00 | 0.00 | 0.00 | 979.8 | |
| 20260504031514 | 15 | 207 | 0.0 | 0.0 | 0.00 | 0.00 | 0.00 | 979.8 | |
| 20260504031015 | 15 | 209 | 0.0 | 0.0 | 0.00 | 0.00 | 0.00 | 979.8 | |
| 20260504030514 | 15 | 192 | 0.0 | 0.0 | 0.00 | 0.00 | 0.00 | 979.8 | |
| 20260504030021 | 15 | 192 | 0.0 | 0.0 | 0.00 | 0.00 | 0.00 | 979.8 | |
| 20260504025513 | 15 | 224 | 0.0 | 0.0 | 0.00 | 0.00 | 0.00 | 979.8 | |
| 20260504025020 | 15 | 196 | 0.0 | 0.0 | 0.00 | 0.00 | 0.00 | 979.8 | |
| 20260504024534 | 15 | 200 | 0.0 | 0.0 | 0.00 | 0.00 | 0.00 | 979.8 | |
| 20260504024017 | 15 | 187 | 0.0 | 0.0 | 0.00 | 0.00 | 0.00 | 979.8 | |
| 20260504023514 | 15 | 198 | 0.0 | 0.0 | 0.00 | 0.00 | 0.00 | 979.8 | |
| 20260504023027 | 15 | 197 | 0.0 | 0.0 | 0.00 | 0.00 | 0.00 | 979.8 | |
| 20260504022514 | 15 | 229 | 0.0 | 0.0 | 0.00 | 0.00 | 0.00 | 979.8 | |
| 20260504022013 | 14 | 204 | 0.0 | 0.0 | 0.00 | 0.00 | 0.00 | 979.8 | |
| 20260504021515 | 14 | 214 | 0.0 | 0.0 | 0.00 | 0.00 | 0.00 | 979.8 | |
| 20260504021013 | 14 | 207 | 0.0 | 0.0 | 0.00 | 0.00 | 0.00 | 979.8 | |
| 20260504020514 | 14 | 213 | 0.0 | 0.0 | 0.00 | 0.00 | 0.00 | 979.8 | |
| 20260504020024 | 14 | 218 | 4.8 | 0.0 | 0.00 | 0.00 | 0.00 | 979.8 | |
| 20260504015534 | 14 | 208 | 0.0 | 0.0 | 0.00 | 0.00 | 0.00 | 979.8 | |
| 20260504015018 | 14 | 208 | 0.0 | 0.0 | 0.00 | 0.00 | 0.00 | 979.8 | |
| 20260504014514 | 15 | 208 | 0.0 | 0.0 | 0.00 | 0.00 | 0.00 | 979.8 | |
| 20260504014013 | 15 | 208 | 0.0 | 0.0 | 0.00 | 0.00 | 0.00 | 979.8 | |
| 20260504013513 | 15 | 208 | 0.0 | 0.0 | 0.00 | 0.00 | 0.00 | 979.8 | |
| 20260504013014 | 15 | 208 | 0.0 | 0.0 | 0.00 | 0.00 | 0.00 | 979.8 | |
| 20260504012513 | 15 | 208 | 0.0 | 0.0 | 0.00 | 0.00 | 0.00 | 979.8 | |
| 20260504012014 | 16 | 208 | 0.0 | 0.0 | 0.00 | 0.00 | 0.00 | 979.8 | |
| 20260504011513 | 16 | 208 | 0.0 | 0.0 | 0.00 | 0.00 | 0.00 | 978.8 | |
| 20260504011020 | 16 | 208 | 0.0 | 0.0 | 0.00 | 0.00 | 0.00 | 978.8 | |
| 20260504010514 | 16 | 208 | 0.0 | 0.0 | 0.00 | 0.00 | 0.00 | 978.8 | |
| 20260504010014 | 16 | 218 | 0.0 | 0.0 | 0.00 | 0.00 | 0.00 | 979.8 | |
| 20260504005513 | 16 | 233 | 0.0 | 0.0 | 0.00 | 0.00 | 0.00 | 979.8 | |
| 20260504005015 | 17 | 243 | 0.0 | 0.0 | 0.00 | 0.00 | 0.00 | 979.8 | |
| 20260504004513 | 17 | 233 | 0.0 | 0.0 | 0.00 | 0.00 | 0.00 | 979.8 | |
| 20260504004012 | 17 | 205 | 0.0 | 0.0 | 0.00 | 0.00 | 0.00 | 979.8 | |
| 20260504003514 | 17 | 232 | 3.2 | 11.3 | 0.00 | 0.00 | 0.00 | 979.8 | |
| 20260504003022 | 17 | 222 | 4.8 | 0.0 | 0.00 | 0.00 | 0.00 | 979.8 | |
| 20260504002513 | 17 | 191 | 4.8 | 4.8 | 0.00 | 0.00 | 0.00 | 979.8 | |
| 20260504002017 | 17 | 239 | 3.2 | 3.2 | 0.00 | 0.00 | 0.00 | 979.8 | |
| 20260504001514 | 17 | 243 | 6.4 | 8.0 | 0.00 | 0.00 | 0.00 | 979.8 | |
| 20260504001034 | 17 | 233 | 6.4 | 6.4 | 0.00 | 0.00 | 0.00 | 979.8 | |
| 20260504000514 | 17 | 335 | 6.4 | 6.4 | 0.00 | 0.00 | 0.00 | 979.8 | |
| 20260504000039 | 17 | 192 | 6.4 | 6.4 | 0.00 | 0.00 | 0.00 | 979.8 | |
| 20260503235513 | 18 | 210 | 4.8 | 8.0 | 0.00 | 0.00 | 0.00 | 979.8 | |
| 20260503235018 | 18 | 259 | 4.8 | 8.0 | 0.00 | 0.00 | 0.00 | 979.8 | |
| 20260503234513 | 18 | 248 | 4.8 | 4.8 | 0.00 | 0.00 | 0.00 | 978.8 | |
| 20260503234013 | 18 | 189 | 6.4 | 8.0 | 0.00 | 0.00 | 0.00 | 978.8 | |
| 20260503233513 | 18 | 213 | 8.0 | 6.4 | 0.00 | 0.00 | 0.00 | 978.8 | |
| 20260503233037 | 18 | 209 | 6.4 | 4.8 | 0.00 | 0.00 | 0.00 | 979.8 | |
| 20260503232534 | 18 | 161 | 6.4 | 0.0 | 0.00 | 0.00 | 0.00 | 979.8 | |
| 20260503232019 | 18 | 230 | 0.0 | 6.4 | 0.00 | 0.00 | 0.00 | 979.8 | |
| 20260503231515 | 18 | 231 | 9.7 | 8.0 | 0.00 | 0.00 | 0.00 | 978.8 | |
| 20260503231018 | 18 | 244 | 6.4 | 12.9 | 0.00 | 0.00 | 0.00 | 978.8 | |
| 20260503230515 | 18 | 210 | 12.9 | 9.7 | 0.00 | 0.00 | 0.00 | 978.8 | |
| 20260503230020 | 18 | 154 | 0.0 | 0.0 | 0.00 | 0.00 | 0.00 | 979.8 | |
| 20260503225514 | 18 | 217 | 6.4 | 8.0 | 0.00 | 0.00 | 0.00 | 979.8 | |
| 20260503225013 | 18 | 241 | 8.0 | 9.7 | 0.00 | 0.00 | 0.00 | 979.8 | |
| 20260503224534 | 18 | 212 | 11.3 | 8.0 | 0.00 | 0.00 | 0.00 | 979.8 | |
| 20260503224020 | 18 | 236 | 4.8 | 6.4 | 0.00 | 0.00 | 0.00 | 979.8 | |
| 20260503223513 | 18 | 216 | 6.4 | 16.1 | 0.00 | 0.00 | 0.00 | 979.8 | |
| 20260503223037 | 18 | 236 | 9.7 | 3.2 | 0.00 | 0.00 | 0.00 | 979.8 | |
| 20260503222516 | 18 | 210 | 6.4 | 9.7 | 0.00 | 0.00 | 0.00 | 979.8 | |
| 20260503222015 | 18 | 229 | 12.9 | 12.9 | 0.00 | 0.00 | 0.00 | 979.8 | |
| 20260503221514 | 18 | 200 | 9.7 | 9.7 | 0.00 | 0.00 | 0.00 | 979.8 | |
| 20260503221017 | 18 | 191 | 9.7 | 4.8 | 0.00 | 0.00 | 0.00 | 979.8 | |
| 20260503220514 | 18 | 236 | 11.3 | 6.4 | 0.00 | 0.00 | 0.00 | 979.8 | |
| 20260503220018 | 18 | 196 | 9.7 | 12.9 | 0.00 | 0.00 | 0.00 | 979.8 | |
| 20260503215514 | 18 | 197 | 4.8 | 12.9 | 0.00 | 0.00 | 0.00 | 979.8 | |
| 20260503215013 | 18 | 209 | 12.9 | 12.9 | 0.00 | 0.00 | 0.00 | 979.8 | |
| 20260503214514 | 18 | 171 | 6.4 | 9.7 | 0.00 | 0.00 | 0.00 | 979.8 | |
| 20260503214035 | 18 | 239 | 8.0 | 12.9 | 0.00 | 0.00 | 0.00 | 979.8 | |
| 20260503213513 | 18 | 12 | 12.9 | 8.0 | 0.00 | 0.00 | 0.00 | 979.8 | |
| 20260503213027 | 18 | 190 | 11.3 | 12.9 | 0.00 | 0.00 | 0.00 | 979.8 | |
| 20260503212513 | 18 | 200 | 12.9 | 9.7 | 0.00 | 0.00 | 0.00 | 979.8 | |
| 20260503212014 | 19 | 221 | 12.9 | 11.3 | 0.00 | 0.00 | 0.00 | 979.8 | |
| 20260503211534 | 19 | 222 | 9.7 | 17.7 | 0.00 | 0.00 | 0.00 | 980.8 | |
| 20260503211016 | 18 | 227 | 6.4 | 9.7 | 0.00 | 0.00 | 0.00 | 980.8 | |
| 20260503210514 | 18 | 220 | 12.9 | 12.9 | 0.00 | 0.00 | 0.00 | 980.8 | |
| 20260503210014 | 18 | 209 | 16.1 | 9.7 | 0.00 | 0.00 | 0.00 | 980.8 | |
| 20260503205516 | 19 | 203 | 12.9 | 17.7 | 0.00 | 0.00 | 0.00 | 980.8 | |
| 20260503205013 | 19 | 208 | 12.9 | 16.1 | 0.00 | 0.00 | 0.00 | 980.8 | |
| 20260503204535 | 19 | 165 | 12.9 | 4.8 | 0.00 | 0.00 | 0.00 | 980.8 | |
| 20260503204015 | 19 | 211 | 19.3 | 20.9 | 0.00 | 0.00 | 0.00 | 980.8 | |
| 20260503203513 | 18 | 220 | 11.3 | 12.9 | 0.00 | 0.00 | 0.00 | 980.8 | |
| 20260503203013 | 18 | 256 | 9.7 | 17.7 | 0.00 | 0.00 | 0.00 | 980.8 | |
| 20260503202513 | 18 | 202 | 11.3 | 12.9 | 0.00 | 0.00 | 0.00 | 980.8 | |
| 20260503202034 | 18 | 203 | 14.5 | 16.1 | 0.00 | 0.00 | 0.00 | 980.8 | |
| 20260503201514 | 18 | 195 | 9.7 | 12.9 | 0.00 | 0.00 | 0.00 | 981.8 | |
| 20260503201018 | 19 | 181 | 8.0 | 9.7 | 0.00 | 0.00 | 0.00 | 981.8 | |
| 20260503200513 | 18 | 140 | 9.7 | 9.7 | 0.00 | 0.00 | 0.00 | 981.8 | |
| 20260503200034 | 18 | 233 | 6.4 | 6.4 | 0.00 | 0.00 | 0.00 | 981.8 | |
| 20260503195513 | 18 | 233 | 16.1 | 6.4 | 0.00 | 0.00 | 0.00 | 981.8 | |
| 20260503195035 | 18 | 256 | 9.7 | 8.0 | 0.00 | 0.00 | 0.00 | 981.8 | |
| 20260503194525 | 18 | 184 | 11.3 | 27.4 | 0.00 | 0.00 | 0.00 | 981.8 | |
| 20260503194017 | 17 | 192 | 11.3 | 9.7 | 0.00 | 0.00 | 0.00 | 981.8 | |
| 20260503193537 | 17 | 222 | 14.5 | 11.3 | 0.00 | 0.00 | 0.00 | 981.8 | |
| 20260503193023 | 17 | 205 | 12.9 | 6.4 | 0.00 | 0.00 | 0.00 | 981.8 | |
| 20260503192513 | 17 | 126 | 14.5 | 14.5 | 0.00 | 0.00 | 0.00 | 981.8 | |
| 20260503192016 | 17 | 198 | 9.7 | 9.7 | 0.00 | 0.00 | 0.00 | 981.8 | |
| 20260503191516 | 17 | 238 | 9.7 | 12.9 | 0.00 | 0.00 | 0.00 | 981.8 | |
| 20260503191013 | 17 | 120 | 6.4 | 8.0 | 0.00 | 0.00 | 0.00 | 981.8 | |
| 20260503190517 | 17 | 199 | 9.7 | 9.7 | 0.00 | 0.00 | 0.00 | 981.8 | |
| 20260503190024 | 17 | 182 | 11.3 | 6.4 | 0.00 | 0.00 | 0.00 | 981.8 | |
| 20260503185515 | 17 | 208 | 11.3 | 9.7 | 0.00 | 0.00 | 0.00 | 981.8 | |
| 20260503185019 | 16 | 220 | 12.9 | 4.8 | 0.00 | 0.00 | 0.00 | 981.8 | |
| 20260503184513 | 17 | 237 | 12.9 | 12.9 | 0.00 | 0.00 | 0.00 | 982.8 | |
| 20260503184013 | 16 | 233 | 8.0 | 6.4 | 0.00 | 0.00 | 0.00 | 982.8 | |
| 20260503183525 | 16 | 158 | 9.7 | 8.0 | 0.00 | 0.00 | 0.00 | 982.8 | |
| 20260503183013 | 16 | 193 | 9.7 | 9.7 | 0.00 | 0.00 | 0.00 | 982.8 | |
| 20260503182539 | 16 | 221 | 12.9 | 17.7 | 0.00 | 0.00 | 0.00 | 982.8 | |
| 20260503182016 | 16 | 240 | 11.3 | 14.5 | 0.00 | 0.00 | 0.00 | 982.8 | |
| 20260503181521 | 16 | 212 | 11.3 | 17.7 | 0.00 | 0.00 | 0.00 | 982.8 | |
| 20260503181034 | 15 | 195 | 6.4 | 9.7 | 0.00 | 0.00 | 0.00 | 982.8 | |
| 20260503180536 | 15 | 220 | 8.0 | 4.8 | 0.00 | 0.00 | 0.00 | 982.8 | |
| 20260503180014 | 15 | 193 | 9.7 | 17.7 | 0.00 | 0.00 | 0.00 | 983.8 | |
| 20260503175517 | 15 | 170 | 11.3 | 12.9 | 0.00 | 0.00 | 0.00 | 983.8 | |
| 20260503175019 | 15 | 177 | 9.7 | 9.7 | 0.00 | 0.00 | 0.00 | 983.8 | |
| 20260503174513 | 15 | 190 | 9.7 | 12.9 | 0.00 | 0.00 | 0.00 | 983.8 | |
| 20260503174018 | 15 | 225 | 9.7 | 9.7 | 0.00 | 0.00 | 0.00 | 983.8 | |
| 20260503173514 | 15 | 182 | 9.7 | 4.8 | 0.00 | 0.00 | 0.00 | 983.8 | |
| 20260503173027 | 15 | 241 | 9.7 | 20.9 | 0.00 | 0.00 | 0.00 | 983.8 | |
| 20260503172514 | 15 | 200 | 11.3 | 12.9 | 0.00 | 0.00 | 0.00 | 983.8 | |
| 20260503172013 | 14 | 218 | 12.9 | 9.7 | 0.00 | 0.00 | 0.00 | 983.8 | |
| 20260503171520 | 14 | 187 | 9.7 | 12.9 | 0.00 | 0.00 | 0.00 | 984.8 | |
| 20260503171014 | 13 | 171 | 9.7 | 16.1 | 0.00 | 0.00 | 0.00 | 984.8 | |
| 20260503170513 | 13 | 233 | 12.9 | 17.7 | 0.00 | 0.00 | 0.00 | 984.8 | |
| 20260503150514 | 13 | 185 | 8.0 | 9.7 | 0.00 | 0.00 | 0.00 | 986.8 | |
| 20260503131014 | 11 | 221 | 9.7 | 12.9 | 0.00 | 0.00 | 0.00 | 986.8 | |
| 20260503130536 | 11 | 258 | 6.4 | 4.8 | 0.00 | 0.00 | 0.00 | 986.8 | |
| 20260503110523 | 8 | 188 | 6.4 | 12.9 | 0.00 | 0.00 | 0.00 | 985.8 | |
| 20260503081515 | 7 | 217 | 4.8 | 4.8 | 0.00 | 0.00 | 0.00 | 987.8 | |
| 20260503081040 | 7 | 240 | 0.0 | 0.0 | 0.00 | 0.00 | 0.00 | 987.8 | |
| 20260503080525 | 7 | 233 | 3.2 | 6.4 | 0.00 | 0.00 | 0.00 | 987.8 | |
| 20260503072518 | 6 | 231 | 4.8 | 3.2 | 0.00 | 0.00 | 0.00 | 987.8 | |
| 20260503072013 | 6 | 226 | 0.0 | 0.0 | 0.00 | 0.00 | 0.00 | 987.8 | |
| 20260503071515 | 6 | 222 | 0.0 | 0.0 | 0.00 | 0.00 | 0.00 | 987.8 | |
| 20260503071014 | 6 | 217 | 0.0 | 0.0 | 0.00 | 0.00 | 0.00 | 987.8 | |
| 20260503070514 | 6 | 221 | 0.0 | 0.0 | 0.00 | 0.00 | 0.00 | 987.8 |